Back to catalog

STARLINK-32419

AliveCommunicationsVLEO
NORAD 61637·PAYLOAD·🇺🇸 United States

Launched Oct 23, 2024 from Cape Canaveral Space Force Station

Loading…

Next Passes (next 24 hours)

TLE

FreshSource: CelesTrak SupGP

Epoch: Sep 14, 2026, 14:02 UTC

1 61637C 24191S   26257.58520833  .00030727  00000+0  11134-2 0  2573
2 61637  42.9998 167.8825 0001506 261.9750  96.8982 15.27549555    16

Track STARLINK-32419 in real time with AllMySat

Download on the App Store